Tracking 29591 objects as of 19-Sep-2024
HD Live streaming from Space Station
objects crossing your sky now

ATLAS 1 CENTAUR R/B

Track ATLAS 1 CENTAUR R/B now!


NORAD ID: 20713
Int'l Code: 1990-065B
Perigee: 332.7 km
Apogee: 30,001.1 km
Inclination: 17.6 °
Period: 524.3 minutes
Semi major axis: 21537 km
RCS: 16.9997 m2 (large)
Launch date: July 25, 1990
Source: United States (US)
Launch site: AIR FORCE EASTERN TEST RANGE (AFETR)

Note: This is a ROCKET BODY
Your satellite tracking list
Your tracking list is empty




NASA's NSSDC Master Catalog

Two Line Element Set (TLE):
1 20713U 90065B   24263.53930454  .00001573  00000-0  12783-2 0  9992
2 20713  17.6416  98.1870 6887505 320.6572   5.5511  2.74661663325151
Source of the keplerian elements: AFSPC